星链-33684 (STARLINK-33684)

导读

STARLINK-33684是美国SpaceX公司星链(Starlink)卫星互联网项目中的一颗低轨通信卫星,于2025年4月25日由美国发射入轨。作为星链星座组网的组成部分,它运行在近地轨道,配备卫星通信与推进系统,旨在为全球提供高速低延迟宽带互联网服务,扩展星链网络覆盖范围,服务民用通信与特殊行业需求,目前已在轨正常运行。

基本信息
目录编号:
63649
目录名称:
STARLINK-33684
国际标识:
2025-083R
轨道中心:
EARTH
卫星名称:
星链-33684
卫星全名:
星链-33684 (STARLINK-33684)
卫星状态:
在轨 (已飞行505 天)
发射日期:
2025-04-25 UTC
国别 :
美国 (US)
星等 :
--
该卫星已列入 空间交会检测服务 Space Conjunction Data Service (SCDS) ,当前飞行风险评估等级: 无高风险
轨道信息
数据来源 国际轨道数据 AOE轨道数据
星历时间 2026-09-12T01:35:58+0800
18小时前
查看轨道信息
2026-09-06T08:00:00+0800
6天前
查看轨道信息
半长轴 6861.224km 6861.219km
偏心率 0.0001875 0.000199
轨道倾角 43.003° 42.999°
近地点辐角 284.971° 280.633°
升交点赤经 34.199° 66.577°
平近点角 75.094° 193.432°
近地点 481.8km 481.716km
远地点 484.374km 484.448km
周期 94.268分钟 94.267分钟
每日圈数 15.275674 15.275692
详细信息
固有亮度:
5
最大亮度:
2.5
卫星平台:
Starlink V1.0
覆盖范围:
全球
运营商:
太空探索技术公司
运营商所在国:
美国
制造商(研发单位):
太空探索技术公司
制造商所在国:
美国
使用方式:
暂无
卫星简介
Starlink 计划是 SpaceX 推出的全球卫星互联网项目,通过发射低轨道卫星,为全球尤其是偏远地区提供高速、低延迟的互联网服务。自 2019 年起,Starlink 已部署数千颗卫星,旨在缩小全球数字鸿沟,推动互联网普及。该项目还为军事、航空等行业提供通信支持,带来广泛经济效益。
2D轨道图
3D轨道图
轨道高度分析图
轨道倾角分析图
轨道综合分析图
查看轨道综合分析图
交会数据列表
事件ID 空间交会对象 最接近时刻(TCA) 交会距离 交会风险概率(CRP) 交会风险指数(CRI) 操作
CDM_260913-232705-385606-364921
2026-09-13T
23:27:29+0000
2.347 km
极远距离
1.364837E-6 低风险 0.38
CDM_260914-132906-332006-364921
2026-09-14T
13:29:36+0000
2.530 km
极远距离
4.91456E-7 极低风险 0.29
与全量物体交会距离演化趋势
与全量物体交会风险概率演化趋势